CZ-4 DEB, 28070

Orbit data source: Space-Track

CZ-4 DEB, 28070 is space debris in SSO originally from a launch on Thu, 14 Oct 1999 UTC launched from the Taiyaun Space Center, China (TSC). Debris objects in space refer to the collection of defunct objects orbiting the Earth. Examples of debris include non-operational satellites, rocket bodies, and fragments generated from explosions, collisions, or faulty payload assembly.

Loading next visibility...
Identifier
28070, 1999-057NA
Orbit
SSO
Country
Flag of CNCN / PRC
Related business
Manufacturer
Unknown
Mission
Spacecraft
Bus & Motor
Unknown
Mass
Unknown
Launch date (UTC)
1999-10-14 (26 years ago)
Launch vehicle
Unknown
Launch site
Taiyaun Space Center, China (TSC)
Object type
Payload
Rocket body
Debris
Shape & HBR
Unknown shape, 0.1 m
Radar Cross Section
Small (<0.1 m²)

Expand to show TLE details & history
Last TLE update: 6 hours ago

TLE from 6 hours ago
0 CZ-4 DEB
1 28070U 99057NA  26038.10859116  .00002959  00000-0  61376-3 0  9998
2 28070  98.4555  94.2254 0059650 340.1183  19.7692 14.59872053235981
Epoch: 2026-02-07T02:36Z
TLE epoch observation values (Epoch: 2026-02-07T02:36:22.276Z)
Latitude
-0°
Longitude
-82.10426°
Altitude
656.888 km
Speed
7.55 km/s
True Right ascension
06h 16m 54s
True Declination
0° 00' 00"
Sunlit
Object was in full shadow at epoch
Visualization orbit readout
Latitude
Unknown
Longitude
Unknown
Altitude
Unknown
Speed
Unknown
Apparent Right ascension
Unknown
Apparent Declination
Unknown
Sunlit
N/A
Visualization observer readout
Local Sidereal Time
10:39:44
Azimuth
Unknown
Elevation
Unknown
Doppler factor
Unknown
Orbital elements
Apogee altitude
732.846 km
Perigee altitude
648.515 km
Semi-major axis
7,068.817 km
Eccentricity
0.00597
Inclination
98.4555°
RAAN
94.2254°
Arg. of periapsis
340.1183°
True anomaly
20.00203°
Mean anomaly
19.7692°
Eccentric anomaly
19.88545°
Mean motion
3.65193 °/min
Orbital period
98.58 mins
BSTAR
0.00061376
Loading maneuver chart data...
Computing Atmospheric mass density...

Documentation

Showing up to 5 results
|